New Orleans Lakefront, LA

12:36 PM CST on November 14, 2019 (GMT -0600)
Lakefront

Weather History for KNEW - September, 2019

Change the Weather History Date:

Sunday, September 15, 2019

  Actual Average Record
Temperature  
Mean Temperature 84 °F 80 °F  
Max Temperature 92 °F 88 °F 96 °F (1980)
Min Temperature 75 °F 73 °F 54 °F (1964)
Degree Days  
Heating Degree Days 0 0  
Month to date heating degree days 0 0  
Since 1 July heating degree days 0 0  
Cooling Degree Days 19 15  
Month to date cooling degree days 329 246  
Year to date cooling degree days 2970 2492  
Growing Degree Days 36 (Base 50)    
Moisture  
Dew Point 73 °F    
Average Humidity 72    
Maximum Humidity 94    
Minimum Humidity 49    
Precipitation  
Precipitation 0.00 in 0.17 in 3.18 in (1994)
Month to date precipitation 0.02 2.80  
Year to date precipitation 46.78 47.01  
Snow  
Snow 0.00 in - - ()
Month to date snowfall 0.0  
Since 1 July snowfall 0.0  
Since 1 September snowfall 0.0  
Snow Depth 0.00 in    
Sea Level Pressure  
Sea Level Pressure 29.99 in    
Wind  
Wind Speed 8 mph (East)    
Max Wind Speed 17 mph    
Max Gust Speed 22 mph    
Visibility 10 miles    
Events      
T = Trace of Precipitation, MM = Missing Value Source: NWS Daily Summary

Daily Weather History Graph

Daily Weather History Graph

Search for Another Location

Airport or City:

Astronomy

Sep. 15, 2019 Rise Set
Actual Time 6:44 AM CDT 7:05 PM CDT
Civil Twilight 6:20 AM CDT 7:29 PM CDT
Nautical Twilight 5:52 AM CDT 7:57 PM CDT
Astronomical Twilight 5:24 AM CDT 8:26 PM CDT
Moon 8:17 PM CDT (9/15) 7:53 AM CDT (9/15)
Length of Visible Light 13h 09m
Length of Day
12h 21m
Full, 98% of the Moon is Illuminated
Sep 15
Full
Sep 21
Last Quarter
Sep 28
New
Oct 5
First Quarter
Oct 13
Full

Hourly Weather History & Observations

Time (CDT) Temp. Heat Index Dew Point Humidity Pressure Visibility Wind Dir Wind Speed Gust Speed Precip Events Conditions
12:53 AM 82.9 °F 89.4 °F 73.9 °F 74% 30.02 in 10.0 mi East 3.5 mph - N/A   Clear
1:53 AM 82.9 °F 90.2 °F 75.0 °F 77% 30.01 in 10.0 mi East 4.6 mph - N/A   Clear
2:53 AM 82.9 °F 90.8 °F 75.9 °F 79% 30.00 in 10.0 mi NNE 8.1 mph - N/A   Clear
3:53 AM 82.9 °F 90.2 °F 75.0 °F 77% 30.00 in 10.0 mi North 11.5 mph - N/A   Clear
4:53 AM 82.9 °F 88.8 °F 73.0 °F 72% 29.99 in 10.0 mi North 15.0 mph - N/A   Clear
5:53 AM 82.0 °F 87.9 °F 73.9 °F 76% 30.01 in 10.0 mi ENE 13.8 mph - N/A   Clear
6:53 AM 82.0 °F 87.9 °F 73.9 °F 76% 30.02 in 9.0 mi ENE 17.3 mph - N/A   Clear
7:22 AM 81.0 °F 86.2 °F 73.9 °F 79% 30.03 in 8.0 mi ENE 16.1 mph - N/A   Partly Cloudy
7:53 AM 81.0 °F 85.8 °F 73.0 °F 77% 30.01 in 8.0 mi ENE 16.1 mph - N/A   Clear
8:53 AM 82.0 °F 87.9 °F 73.9 °F 76% 30.01 in 8.0 mi ENE 15.0 mph - N/A   Clear
9:53 AM 82.9 °F 89.4 °F 73.9 °F 74% 30.02 in 8.0 mi ENE 18.4 mph - N/A   Clear
10:53 AM 84.9 °F 92.1 °F 73.9 °F 69% 30.02 in 8.0 mi ENE 16.1 mph - N/A   Clear
11:53 AM 86.0 °F 93.8 °F 73.9 °F 67% 30.01 in 9.0 mi ENE 15.0 mph - N/A   Clear
12:53 PM 89.1 °F 98.0 °F 73.9 °F 61% 29.99 in 10.0 mi NE 13.8 mph - N/A   Clear
1:53 PM 91.0 °F 95.6 °F 69.1 °F 48% 29.98 in 10.0 mi East 15.0 mph - N/A   Clear
2:53 PM 90.0 °F 96.4 °F 71.1 °F 54% 29.96 in 10.0 mi ESE 11.5 mph - N/A   Clear
3:53 PM 88.0 °F 94.7 °F 72.0 °F 59% 29.95 in 10.0 mi East 15.0 mph - N/A   Clear
4:50 PM 86.0 °F 93.4 °F 73.4 °F 66% 29.97 in 10.0 mi ESE 16.1 mph - N/A   Partly Cloudy
4:53 PM 86.0 °F 93.0 °F 73.0 °F 65% 29.95 in 10.0 mi ESE 16.1 mph - N/A   Clear
5:53 PM 86.0 °F 92.2 °F 72.0 °F 63% 29.96 in 10.0 mi ESE 11.5 mph - N/A   Clear
6:53 PM 86.0 °F 91.5 °F 71.1 °F 61% 29.96 in 10.0 mi East 10.4 mph - N/A   Scattered Clouds
7:53 PM 84.9 °F 90.7 °F 72.0 °F 65% 29.97 in 10.0 mi East 9.2 mph - N/A   Partly Cloudy
8:53 PM 84.0 °F 89.0 °F 71.1 °F 65% 29.99 in 10.0 mi SE 8.1 mph - N/A   Clear
9:53 PM 82.9 °F 88.0 °F 72.0 °F 69% 29.99 in 10.0 mi ESE 8.1 mph - N/A   Clear
10:53 PM 82.9 °F 88.8 °F 73.0 °F 72% 29.99 in 10.0 mi ESE 6.9 mph - N/A   Clear
11:53 PM 82.9 °F 89.4 °F 73.9 °F 74% 29.98 in 10.0 mi East 5.8 mph - N/A   Clear